Time,TemperatureF,DewpointF,PressureIn,WindDirection,WindDirectionDegrees,WindSpeedMPH,WindSpeedGustMPH,Humidity,HourlyPrecipIn,Conditions,Clouds,dailyrainin,SoftwareType,DateUTC
2013-03-29 00:09:00,36.2,28.0,30.32,WSW,246,0.0,0.0,71,0.00,,,0.00,weatherlink.com 1.10,2013-03-29 04:09:00,
2013-03-29 00:24:00,35.9,28.0,30.32,WSW,246,0.0,0.0,72,0.00,,,0.00,weatherlink.com 1.10,2013-03-29 04:24:00,
2013-03-29 00:39:00,35.5,28.0,30.32,WSW,246,0.0,0.0,74,0.00,,,0.00,weatherlink.com 1.10,2013-03-29 04:39:00,
2013-03-29 00:54:00,34.9,28.0,30.32,WSW,246,0.0,0.0,76,0.00,,,0.00,weatherlink.com 1.10,2013-03-29 04:54:00,
2013-03-29 01:09:00,34.4,28.0,30.32,WSW,246,0.0,0.0,76,0.00,,,0.00,weatherlink.com 1.10,2013-03-29 05:09:00,
2013-03-29 01:24:00,34.2,28.0,30.32,WSW,246,0.0,0.0,78,0.00,,,0.00,weatherlink.com 1.10,2013-03-29 05:24:00,
2013-03-29 01:39:00,33.9,28.0,30.32,WSW,246,0.0,0.0,78,0.00,,,0.00,weatherlink.com 1.10,2013-03-29 05:39:00,
2013-03-29 01:54:00,33.4,28.0,30.32,WSW,246,0.0,0.0,79,0.00,,,0.00,weatherlink.com 1.10,2013-03-29 05:54:00,
2013-03-29 02:09:00,32.9,27.0,30.32,WSW,246,0.0,0.0,80,0.00,,,0.00,weatherlink.com 1.10,2013-03-29 06:09:00,
2013-03-29 02:24:00,32.5,27.0,30.32,WSW,246,0.0,0.0,81,0.00,,,0.00,weatherlink.com 1.10,2013-03-29 06:24:00,
2013-03-29 02:39:00,32.3,27.0,30.32,WSW,246,0.0,0.0,82,0.00,,,0.00,weatherlink.com 1.10,2013-03-29 06:39:00,
2013-03-29 02:54:00,31.9,27.0,30.32,WSW,246,0.0,0.0,82,0.00,,,0.00,weatherlink.com 1.10,2013-03-29 06:54:00,
2013-03-29 03:09:00,31.6,27.0,30.32,WSW,246,0.0,0.0,83,0.00,,,0.00,weatherlink.com 1.10,2013-03-29 07:09:00,
2013-03-29 03:24:00,31.4,27.0,30.32,WSW,246,0.0,0.0,83,0.00,,,0.00,weatherlink.com 1.10,2013-03-29 07:24:00,
2013-03-29 03:39:00,31.1,27.0,30.31,WSW,246,0.0,0.0,84,0.00,,,0.00,weatherlink.com 1.10,2013-03-29 07:39:00,
2013-03-29 03:54:00,30.9,27.0,30.31,WSW,246,0.0,0.0,84,0.00,,,0.00,weatherlink.com 1.10,2013-03-29 07:54:00,
2013-03-29 04:09:00,30.6,27.0,30.31,WSW,246,0.0,0.0,85,0.00,,,0.00,weatherlink.com 1.10,2013-03-29 08:09:00,
2013-03-29 04:24:00,30.4,26.0,30.31,WSW,246,0.0,0.0,85,0.00,,,0.00,weatherlink.com 1.10,2013-03-29 08:24:00,
2013-03-29 04:39:00,30.3,27.0,30.31,WSW,246,0.0,0.0,86,0.00,,,0.00,weatherlink.com 1.10,2013-03-29 08:39:00,
2013-03-29 04:54:00,30.3,27.0,30.30,WSW,246,0.0,0.0,86,0.00,,,0.00,weatherlink.com 1.10,2013-03-29 08:54:00,
2013-03-29 05:09:00,30.2,27.0,30.31,WSW,246,0.0,0.0,86,0.00,,,0.00,weatherlink.com 1.10,2013-03-29 09:09:00,
2013-03-29 05:24:00,29.9,27.0,30.31,WSW,246,0.0,0.0,87,0.00,,,0.00,weatherlink.com 1.10,2013-03-29 09:24:00,
2013-03-29 05:39:00,29.6,26.0,30.30,WSW,246,0.0,0.0,87,0.00,,,0.00,weatherlink.com 1.10,2013-03-29 09:39:00,
2013-03-29 05:54:00,29.5,26.0,30.30,WSW,246,0.0,0.0,88,0.00,,,0.00,weatherlink.com 1.10,2013-03-29 09:54:00,
2013-03-29 06:09:00,29.3,26.0,30.31,WSW,246,0.0,0.0,88,0.00,,,0.00,weatherlink.com 1.10,2013-03-29 10:09:00,
2013-03-29 06:24:00,29.2,26.0,30.31,WSW,246,0.0,0.0,89,0.00,,,0.00,weatherlink.com 1.10,2013-03-29 10:24:00,
2013-03-29 06:39:00,29.0,26.0,30.30,WSW,246,0.0,0.0,89,0.00,,,0.00,weatherlink.com 1.10,2013-03-29 10:39:00,
2013-03-29 06:54:00,29.0,27.0,30.31,WSW,246,0.0,0.0,90,0.00,,,0.00,weatherlink.com 1.10,2013-03-29 10:54:00,
2013-03-29 07:09:00,29.2,27.0,30.31,WSW,246,0.0,0.0,90,0.00,,,0.00,weatherlink.com 1.10,2013-03-29 11:09:00,
2013-03-29 07:25:00,29.1,27.0,30.31,WSW,246,0.0,0.0,90,0.00,,,0.00,weatherlink.com 1.10,2013-03-29 11:25:00,
2013-03-29 07:39:00,29.1,27.0,30.32,WSW,246,0.0,0.0,91,0.00,,,0.00,weatherlink.com 1.10,2013-03-29 11:39:00,
2013-03-29 07:54:00,29.4,27.0,30.32,WSW,246,0.0,0.0,92,0.00,,,0.00,weatherlink.com 1.10,2013-03-29 11:54:00,
2013-03-29 08:09:00,30.1,28.0,30.32,WSW,246,0.0,0.0,92,0.00,,,0.00,weatherlink.com 1.10,2013-03-29 12:09:00,
2013-03-29 08:24:00,30.5,28.0,30.32,WSW,246,0.0,0.0,91,0.00,,,0.00,weatherlink.com 1.10,2013-03-29 12:24:00,
2013-03-29 08:39:00,30.9,28.0,30.32,WSW,246,0.0,0.0,90,0.00,,,0.00,weatherlink.com 1.10,2013-03-29 12:39:00,
2013-03-29 08:54:00,31.6,29.0,30.32,WSW,246,0.0,0.0,90,0.00,,,0.00,weatherlink.com 1.10,2013-03-29 12:54:00,
2013-03-29 09:09:00,33.1,30.0,30.32,WSW,246,0.0,0.0,89,0.00,,,0.00,weatherlink.com 1.10,2013-03-29 13:09:00,
2013-03-29 09:25:00,35.5,31.0,30.33,WSW,246,0.0,0.0,83,0.00,,,0.00,weatherlink.com 1.10,2013-03-29 13:25:00,
2013-03-29 09:40:00,37.9,32.0,30.34,WSW,246,0.0,1.0,78,0.00,,,0.00,weatherlink.com 1.10,2013-03-29 13:40:00,
2013-03-29 09:55:00,39.4,31.0,30.34,WSW,246,0.0,2.0,73,0.00,,,0.00,weatherlink.com 1.10,2013-03-29 13:55:00,
2013-03-29 10:10:00,40.7,32.0,30.34,NNE,31,0.0,2.0,70,0.00,,,0.00,weatherlink.com 1.10,2013-03-29 14:10:00,
2013-03-29 10:25:00,41.9,32.0,30.34,NNE,33,0.0,2.0,67,0.00,,,0.00,weatherlink.com 1.10,2013-03-29 14:25:00,
2013-03-29 10:40:00,42.8,31.0,30.33,NNE,33,0.0,2.0,63,0.00,,,0.00,weatherlink.com 1.10,2013-03-29 14:40:00,
2013-03-29 10:55:00,44.4,31.0,30.33,WSW,248,0.0,2.0,60,0.00,,,0.00,weatherlink.com 1.10,2013-03-29 14:55:00,
2013-03-29 11:10:00,45.8,31.0,30.33,WSW,251,0.0,3.0,57,0.00,,,0.00,weatherlink.com 1.10,2013-03-29 15:10:00,
2013-03-29 11:25:00,46.7,33.0,30.33,WSW,252,0.0,3.0,59,0.00,,,0.00,weatherlink.com 1.10,2013-03-29 15:25:00,
2013-03-29 11:40:00,47.5,32.0,30.33,SW,231,0.0,2.0,56,0.00,,,0.00,weatherlink.com 1.10,2013-03-29 15:40:00,
2013-03-29 11:55:00,48.3,32.0,30.33,West,261,2.0,4.0,53,0.00,,,0.00,weatherlink.com 1.10,2013-03-29 15:55:00,
2013-03-29 12:10:00,49.1,31.0,30.32,WNW,299,0.0,6.0,50,0.00,,,0.00,weatherlink.com 1.10,2013-03-29 16:10:00,
2013-03-29 12:25:00,49.7,31.0,30.32,NE,40,0.0,3.0,48,0.00,,,0.00,weatherlink.com 1.10,2013-03-29 16:25:00,
2013-03-29 12:40:00,50.2,32.0,30.31,NE,49,1.0,4.0,50,0.00,,,0.00,weatherlink.com 1.10,2013-03-29 16:40:00,
2013-03-29 12:55:00,51.2,31.0,30.31,WSW,250,0.0,5.0,47,0.00,,,0.00,weatherlink.com 1.10,2013-03-29 16:55:00,
2013-03-29 13:10:00,51.9,31.0,30.29,NE,35,0.0,4.0,45,0.00,,,0.00,weatherlink.com 1.10,2013-03-29 17:10:00,
2013-03-29 13:25:00,52.9,30.0,30.29,West,260,4.0,5.0,42,0.00,,,0.00,weatherlink.com 1.10,2013-03-29 17:25:00,
2013-03-29 13:40:00,53.6,30.0,30.28,NE,43,1.0,4.0,41,0.00,,,0.00,weatherlink.com 1.10,2013-03-29 17:40:00,
2013-03-29 13:55:00,53.8,31.0,30.28,ENE,70,1.0,4.0,42,0.00,,,0.00,weatherlink.com 1.10,2013-03-29 17:55:00,
2013-03-29 14:10:00,54.8,32.0,30.27,NE,34,3.0,3.0,42,0.00,,,0.00,weatherlink.com 1.10,2013-03-29 18:10:00,
2013-03-29 14:25:00,54.8,31.0,30.26,West,272,0.0,7.0,41,0.00,,,0.00,weatherlink.com 1.10,2013-03-29 18:25:00,
2013-03-29 14:40:00,56.2,29.0,30.26,East,86,0.0,3.0,36,0.00,,,0.00,weatherlink.com 1.10,2013-03-29 18:40:00,
2013-03-29 14:55:00,54.1,29.0,30.25,NE,40,1.0,4.0,38,0.00,,,0.00,weatherlink.com 1.10,2013-03-29 18:55:00,
2013-03-29 15:10:00,55.7,30.0,30.24,ENE,76,0.0,4.0,37,0.00,,,0.00,weatherlink.com 1.10,2013-03-29 19:10:00,
2013-03-29 15:25:00,56.0,29.0,30.24,SW,220,0.0,4.0,36,0.00,,,0.00,weatherlink.com 1.10,2013-03-29 19:25:00,
2013-03-29 15:40:00,57.0,31.0,30.23,SW,227,3.0,4.0,37,0.00,,,0.00,weatherlink.com 1.10,2013-03-29 19:40:00,
2013-03-29 15:55:00,56.5,29.0,30.23,ESE,109,1.0,5.0,35,0.00,,,0.00,weatherlink.com 1.10,2013-03-29 19:55:00,
2013-03-29 16:10:00,55.9,30.0,30.22,NE,37,0.0,4.0,37,0.00,,,0.00,weatherlink.com 1.10,2013-03-29 20:10:00,
2013-03-29 16:25:00,55.6,29.0,30.22,North,5,0.0,3.0,37,0.00,,,0.00,weatherlink.com 1.10,2013-03-29 20:25:00,
2013-03-29 16:40:00,55.7,30.0,30.22,NE,55,1.0,3.0,37,0.00,,,0.00,weatherlink.com 1.10,2013-03-29 20:40:00,
2013-03-29 16:55:00,55.6,29.0,30.21,East,81,0.0,3.0,37,0.00,,,0.00,weatherlink.com 1.10,2013-03-29 20:55:00,
2013-03-29 17:10:00,55.9,30.0,30.21,ESE,107,0.0,4.0,37,0.00,,,0.00,weatherlink.com 1.10,2013-03-29 21:10:00,
2013-03-29 17:25:00,55.6,29.0,30.21,WSW,249,0.0,5.0,36,0.00,,,0.00,weatherlink.com 1.10,2013-03-29 21:25:00,
2013-03-29 17:40:00,55.6,29.0,30.21,NE,40,0.0,3.0,37,0.00,,,0.00,weatherlink.com 1.10,2013-03-29 21:40:00,
2013-03-29 17:55:00,54.8,30.0,30.20,NE,49,0.0,3.0,39,0.00,,,0.00,weatherlink.com 1.10,2013-03-29 21:55:00,
2013-03-29 18:10:00,55.2,30.0,30.20,West,263,0.0,4.0,38,0.00,,,0.00,weatherlink.com 1.10,2013-03-29 22:10:00,
2013-03-29 18:25:00,54.9,31.0,30.20,West,281,0.0,2.0,40,0.00,,,0.00,weatherlink.com 1.10,2013-03-29 22:25:00,
2013-03-29 18:40:00,54.5,30.0,30.20,South,181,0.0,2.0,39,0.00,,,0.00,weatherlink.com 1.10,2013-03-29 22:40:00,
2013-03-29 18:56:00,54.5,29.0,30.20,WSW,255,1.0,3.0,38,0.00,,,0.00,weatherlink.com 1.10,2013-03-29 22:56:00,
2013-03-29 19:11:00,54.4,30.0,30.20,WSW,250,0.0,1.0,40,0.00,,,0.00,weatherlink.com 1.10,2013-03-29 23:11:00,
2013-03-29 19:26:00,54.1,30.0,30.20,WNW,290,1.0,2.0,40,0.00,,,0.00,weatherlink.com 1.10,2013-03-29 23:26:00,
2013-03-29 19:41:00,53.6,30.0,30.20,WNW,289,0.0,1.0,41,0.00,,,0.00,weatherlink.com 1.10,2013-03-29 23:41:00,
2013-03-29 19:56:00,52.9,31.0,30.20,WNW,289,0.0,0.0,43,0.00,,,0.00,weatherlink.com 1.10,2013-03-29 23:56:00,
2013-03-29 20:41:00,49.8,31.0,30.21,WNW,290,0.0,0.0,49,0.00,,,0.00,weatherlink.com 1.10,2013-03-30 00:41:00,
2013-03-29 21:11:00,48.6,31.0,30.21,WNW,290,0.0,0.0,51,0.00,,,0.00,weatherlink.com 1.10,2013-03-30 01:11:00,
2013-03-29 21:26:00,48.0,31.0,30.21,WNW,289,0.0,0.0,53,0.00,,,0.00,weatherlink.com 1.10,2013-03-30 01:26:00,
2013-03-29 21:56:00,46.4,31.0,30.22,WNW,290,0.0,0.0,56,0.00,,,0.00,weatherlink.com 1.10,2013-03-30 01:56:00,
2013-03-29 22:11:00,45.6,31.0,30.22,WNW,290,0.0,0.0,57,0.00,,,0.00,weatherlink.com 1.10,2013-03-30 02:11:00,
2013-03-29 22:41:00,44.4,32.0,30.23,WNW,290,0.0,0.0,63,0.00,,,0.00,weatherlink.com 1.10,2013-03-30 02:41:00,
2013-03-29 22:56:00,44.5,32.0,30.23,WNW,289,0.0,0.0,62,0.00,,,0.00,weatherlink.com 1.10,2013-03-30 02:56:00,
2013-03-29 23:11:00,44.3,32.0,30.23,WNW,290,0.0,0.0,63,0.00,,,0.00,weatherlink.com 1.10,2013-03-30 03:11:00,
2013-03-29 23:26:00,44.0,32.0,30.23,WNW,290,0.0,0.0,64,0.00,,,0.00,weatherlink.com 1.10,2013-03-30 03:26:00,
2013-03-29 23:41:00,43.7,32.0,30.23,WNW,290,0.0,0.0,64,0.00,,,0.00,weatherlink.com 1.10,2013-03-30 03:41:00,
2013-03-29 23:56:00,43.2,32.0,30.23,WNW,290,0.0,0.0,65,0.00,,,0.00,weatherlink.com 1.10,2013-03-30 03:56:00,